This is the latest recevied weather packets stored in our database for station/object W6SNO-1. If no packets are shown the sender has not sent any weather packets the latest 10 day(s).
| Time | Temp. | Humidity | Pressure | Rain* | Wind** | Luminosity | Snow |
|---|---|---|---|---|---|---|---|
| 1778109377 | 23.89° C | 52% | 1017.6 hPa | 0 mm | - | 512 W/m² | - |
| 1778109075 | 23.89° C | 52% | 1017.7 hPa | 0 mm | - | 512 W/m² | - |
| 1778106647 | 23.33° C | 51% | 1018.1 hPa | 0 mm | - | 624 W/m² | - |
| 1778106344 | 23.33° C | 51% | 1018.2 hPa | 0 mm | - | 624 W/m² | - |
| 1778106041 | 22.78° C | 53% | 1017.9 hPa | 0 mm | - | 637 W/m² | - |
| 1778103615 | 23.33° C | 52% | 1018.6 hPa | 0 mm | - | 721 W/m² | - |
| 1778103313 | 23.33° C | 52% | 1018.6 hPa | 0 mm | - | 721 W/m² | - |
| 1778102097 | 22.22° C | 56% | 1019 hPa | 0 mm | - | 755 W/m² | - |
| 1778101794 | 22.22° C | 56% | 1018.7 hPa | 0 mm | - | 755 W/m² | - |
| 1778100884 | 21.67° C | 57% | 1019.1 hPa | 0 mm | - | 774 W/m² | - |
| 1778100580 | 21.67° C | 57% | 1019.3 hPa | 0 mm | - | 774 W/m² | - |
| 1778096640 | 20° C | 61% | 1019.9 hPa | 0 mm | - | 790 W/m² | - |
| 1778096338 | 20° C | 61% | 1019.9 hPa | 0 mm | - | 790 W/m² | - |
| 1778096034 | 20° C | 62% | 1019.8 hPa | 0 mm | - | 789 W/m² | - |
| 1778095731 | 20° C | 62% | 1020 hPa | 0 mm | - | 789 W/m² | - |
| 1778095427 | 20° C | 62% | 1019.9 hPa | 0 mm | - | 789 W/m² | - |
| 1778095124 | 19.44° C | 63% | 1020.1 hPa | 0 mm | - | 789 W/m² | - |
| 1778092395 | 18.33° C | 67% | 1020.2 hPa | 0 mm | - | 733 W/m² | - |
| 1778092092 | 18.33° C | 67% | 1020.3 hPa | 0 mm | - | 733 W/m² | - |
| 1778091790 | 17.78° C | 68% | 1020.3 hPa | 0 mm | - | 717 W/m² | - |
| 1778086640 | 15° C | 78% | 1020.7 hPa | 0 mm | - | 197 W/m² | - |
| 1778086337 | 15° C | 78% | 1020.6 hPa | 0 mm | - | 197 W/m² | - |
| 1778085731 | 15° C | 79% | 1020.7 hPa | 0 mm | - | 207 W/m² | - |
| 1778085427 | 15° C | 79% | 1020.5 hPa | 0 mm | - | 207 W/m² | - |
| 1778084819 | 14.44° C | 80% | 1020.8 hPa | 0 mm | - | 163 W/m² | - |
* Rain latest hour (hover to see other rain measurements)
** Current wind speed in m/s (hover to see current wind gust speed)